Back to catalog

STARLINK-2303

AliveCommunicationsVLEO
NORAD 47981·PAYLOAD·🇺🇸 United States

Launched Mar 24, 2021 from Cape Canaveral Space Force Station

Loading…

Next Passes (next 24 hours)

TLE

FreshSource: CelesTrak SupGP

Epoch: Sep 15, 2026, 01:36 UTC

1 47981C 21024E   26258.06715278 -.00004108  00000+0 -13213-3 0  2582
2 47981  53.1575 171.1303 0001235  97.3181 291.5519 15.31697449    15

Track STARLINK-2303 in real time with AllMySat

Download on the App Store